CHUBUSAT 2

Satellite information

Favourite Embed

Satellite Type and Status

PAYLOADIN ORBIT

Key statistics

Satellite CHUBUSAT 2 at a glance.

Uptime

3587

Days in orbit

Revolutions

≈ 15.2

Per day

Orbit

LEO

Low Earth Orbit

Inclination

31.0

Latest

Satellite identification and parameters

Extended collection of information and parameters for CHUBUSAT 2.

Object identification

Identified? True

Debris? False

Object name: CHUBUSAT 2

International designator: 2016-012B

Object number (NORAD): 41338

Object ID (CCSDS): 41338

Country: JAPAN (JPN)

Current information (Y/N): Y

RCS size: MEDIUM

Orbital parameters

Period: 94.839 minutes

Inclination: 30.9978 deg

SMA: 6888.919 km

Apoapsis: 517.128 km

Periapsis: 504.439 km

RAAN: 109.6147 deg

Eccentricy: 0.00092097

Argument of periapsis: 326.7806 deg

Mean anomaly: 33.2255 deg

Mean motion: 15.18365025 rev/day

Mean motion (dot): 0.00010195 rev/day2

B* drag term: 0.00047769197 1/REarth

Two-line elements (TLE)

Creation date: Dec. 12, 2025, 3:16 a.m.

Reference frame: TEME

Reference center: EARTH

Epoch: Dec. 11, 2025, 4:46 p.m. UTC

TLE line 0: 0 CHUBUSAT 2

TLE line 1: 1 41338U 16012B 25345.69928901 .00010195 00000-0 47769-3 0 9994

TLE line 2: 2 41338 30.9978 109.6147 0009210 326.7806 33.2255 15.18365025539877

Live tracking on map

Real-time ground track for satellite CHUBUSAT 2.

In-orbit conjunctions

There are no conjunctions computed for CHUBUSAT 2, at the moment. Check back to stay up to date, as we update our databases every day.

Go to all conjunctions

Associated space launch

Astro-H is the 6th satellite in a series of X-ray telescopes by JAXA and ISAS. Its 4 instruments on board will cover the X-ray and Gamma ray regions. This region consists of photons with energy ranging from 0.3-600keV, and the telescope will provide the highest resolution ever achieved of 3-10 keV bands. The craft weighs 2.7 tonnes and will be placed into a circular orbit 575km above the ground, with an inclination of 31 degrees.

CHUBUSAT 2 was lifted into orbit during the mission ‘H-IIA 202 | Astro-H (Hitomi)’, on board a H-IIA space rocket.

The launch took place on Feb. 17, 2016, 8:45 a.m. from Yoshinobu Launch Complex LP-1.

For more information about the launch, click the button.

Launch to space H-IIA 202 | Astro-H (Hitomi)
H-IIA 202 | Astro-H (Hitomi)

Agency: N/A

Status: Launch Successful

Launch date: Feb. 17, 2016, 8:45 a.m. UTC

Rocket: H-IIA

Launch pad: Yoshinobu Launch Complex LP-1

Location: Tanegashima Space Center, Japan

...

Latest news about this satellite

There are no fresh news available about this satellite. Check back as we update our databases every day.


Newsletter sign-up

Weekly statistics, charts and insights to help you stay on top of the space industry.